[[{"header":{"parameterUnit":"m.s-1","parameterCategory":1,"la1":30.2991,"la2":30.254,"lo1":-89.0895,"lo2":-89.0444,"dy":0.0017,"dx":0.0017,"nx":28,"ny":28,"refTime":"2024-12-16T09:00:00:Z","depth":0,"parameterNumber":2,"parameterNumberName":"U-component_of_WINDS"},"data":[0,0,0,0,0,0,0,0,0,0,0,0,0,0,0,0,0,0,0,0,0,0,0,0,0,0,0,0,0,0,0,0,0,0,0,0,0,0,0,0,0,0,0,0,0,0,0,0,0,0,0,0,0,0,0,0,0,0,-1.6382,-1.6382,0,-1.6365,-1.6365,-1.6365,-1.6279,-1.6277,-1.6275,-1.6273,-1.6258,-1.6259,-1.6261,0,0,0,0,0,0,0,0,0,0,0,0,0,-1.6345,-1.6346,-1.6382,-1.6382,-1.6382,-1.6365,-1.6365,-1.6365,-1.6279,-1.6277,-1.6274,-1.6272,-1.6257,-1.6259,-1.6261,0,0,0,0,0,0,0,0,0,0,0,0,0,-1.6348,-1.6347,-1.6382,-1.6337,-1.6333,-1.6365,-1.6365,-1.6365,-1.628,-1.6277,-1.6274,-1.6271,-1.6257,-1.6259,-1.6261,-1.6336,0,0,-1.6268,-1.6269,0,0,0,0,0,0,0,0,-1.6348,-1.635,-1.6344,-1.634,-1.6336,-1.6321,-1.6346,-1.6355,-1.6281,-1.63,-1.6273,-1.6269,-1.6282,-1.6282,-1.6285,-1.6336,-1.6335,-1.6268,-1.627,-1.6271,-1.6271,0,0,0,0,0,0,0,-1.6348,-1.635,-1.6375,-1.6344,-1.6339,-1.6319,-1.6316,-1.6348,-1.6308,-1.6298,-1.6292,-1.6291,-1.6279,-1.6283,-1.6284,-1.6335,-1.6268,-1.627,-1.6272,-1.6273,-1.6449,-1.6452,0,0,0,0,0,0,-1.6354,-1.635,-1.6376,-1.6375,-1.6334,-1.6322,-1.6319,-1.6329,-1.6308,-1.6301,-1.6294,-1.6287,-1.6281,-1.6282,-1.6283,-1.6371,-1.6271,-1.6273,-1.6274,-1.6445,-1.645,-1.6453,0,0,0,0,0,0,-1.6353,-1.6357,-1.6377,-1.6361,-1.6362,-1.6326,-1.6338,-1.633,-1.6334,-1.6304,-1.6297,-1.6305,-1.6278,-1.628,-1.6324,-1.6369,-1.6274,-1.6276,-1.6442,-1.6447,-1.6451,-1.6547,0,0,0,0,0,0,-1.6352,-1.6357,-1.6384,-1.6362,-1.6363,-1.6417,-1.6341,-1.6332,-1.6338,-1.633,-1.6313,-1.6307,-1.6276,-1.6321,-1.6326,-1.6371,-1.6278,-1.6437,-1.6444,-1.645,-1.654,-1.6555,-1.6568,0,0,0,0,0,-1.6351,-1.6412,-1.6386,-1.6389,-1.6396,-1.6419,-1.642,-1.6382,-1.6342,-1.637,-1.6351,-1.6308,-1.6364,-1.6327,-1.6332,-1.6377,-1.6434,-1.6442,-1.6449,-1.6533,-1.6552,-1.6567,0,0,0,0,0,0,-1.644,-1.6408,-1.6379,-1.6433,-1.643,-1.6405,-1.6438,-1.6403,-1.6411,-1.6402,-1.6356,-1.6353,-1.6405,-1.6395,-1.6354,-1.645,-1.6392,-1.6401,-1.6454,-1.6471,-1.6485,-1.6486,-1.6279,0,0,0,0,0,-1.6466,-1.6486,-1.6458,-1.6509,-1.6508,-1.6474,-1.6483,-1.6454,-1.6449,-1.6447,-1.6431,-1.6429,-1.6446,-1.6458,-1.6472,-1.6538,-1.6535,-1.6573,-1.6587,-1.6598,-1.6606,-1.6643,-1.666,-1.6478,-1.6478,-1.6478,0,0,-1.6519,-1.6504,-1.652,-1.6526,-1.652,-1.6544,-1.6473,-1.6501,-1.6519,-1.6452,-1.6492,-1.6481,-1.6476,-1.6532,-1.6556,-1.6526,-1.6656,-1.6608,-1.6617,-1.6619,-1.6653,-1.667,-1.6685,-1.6483,-1.6482,-1.6481,0,0,-1.6629,-1.6619,-1.6661,-1.6657,-1.6649,-1.6626,-1.6637,-1.6618,-1.6608,-1.6648,-1.6599,-1.662,-1.665,-1.6649,-1.6652,-1.6765,-1.6727,-1.6771,-1.6844,-1.688,-1.6895,-1.6907,-1.6949,-1.6964,-1.6779,-1.678,-1.678,0,-1.6696,-1.6729,-1.6688,-1.672,-1.6725,-1.6665,-1.6709,-1.6707,-1.6705,-1.671,-1.6677,-1.6715,-1.6707,-1.6763,-1.6791,-1.6795,-1.6807,-1.6772,-1.6896,-1.6908,-1.6919,-1.6959,-1.6974,-1.6785,-1.6785,-1.6784,-1.6783,0,-1.6814,-1.6838,-1.6874,-1.6873,-1.6882,-1.692,-1.6886,-1.69,-1.6872,-1.6854,-1.6897,-1.6885,-1.6897,-1.6908,-1.688,-1.6961,-1.6943,-1.6904,-1.6844,-1.6943,-1.6979,-1.6994,-1.6793,-1.6791,-1.6789,-1.6788,0,0,-1.6977,-1.6954,-1.6968,-1.6968,-1.6956,-1.6975,-1.7011,-1.7022,-1.7037,-1.7038,-1.7068,-1.7096,-1.706,-1.7064,-1.7036,-1.7068,-1.7161,-1.7025,-1.7024,-1.7051,-1.7252,-1.7282,-1.73,-1.7136,-1.7138,-1.7141,-1.7253,0,-1.7083,-1.7142,-1.7107,-1.7173,-1.7196,-1.7141,-1.7173,-1.7171,-1.7155,-1.7174,-1.7157,-1.7178,-1.7128,-1.7131,-1.716,-1.7144,-1.7201,-1.7135,-1.7165,-1.7167,-1.7169,-1.7319,-1.735,-1.7457,-1.7267,-1.7269,-1.7271,0,-1.7213,-1.7221,-1.7289,-1.7275,-1.7283,-1.7312,-1.7321,-1.7339,-1.7336,-1.7323,-1.7329,-1.7294,-1.7331,-1.7273,-1.7324,-1.728,-1.729,-1.7285,-1.7288,-1.729,-1.7225,-1.7326,-1.749,-1.7506,-1.7292,-1.7291,-1.7289,0,-1.7327,-1.7354,-1.7398,-1.74,-1.7384,-1.7407,-1.7401,-1.7395,-1.7405,-1.7414,-1.742,-1.7433,-1.744,-1.7452,-1.7423,-1.7382,-1.7479,-1.7417,-1.747,-1.7471,-1.7492,-1.7492,-1.7662,-1.7499,-1.7499,-1.7498,-1.7498,0,-1.7449,-1.7493,-1.745,-1.7477,-1.7526,-1.7486,-1.7536,-1.7525,-1.7521,-1.7547,-1.75,-1.7526,-1.7485,-1.7507,-1.7485,-1.7532,-1.7535,-1.7527,-1.752,-1.7531,-1.7533,-1.7538,-1.753,-1.7502,-1.7502,-1.7501,-1.75,0,-1.7584,-1.7556,-1.7601,-1.7584,-1.7581,-1.7617,-1.7603,-1.7629,-1.7611,-1.7645,-1.765,-1.7623,-1.7647,-1.7619,-1.764,-1.7625,-1.769,-1.7672,-1.7691,-1.7686,-1.7741,-1.7737,-1.792,-1.7943,-1.7765,-1.7767,-1.7769,0,-1.7663,-1.7696,-1.7683,-1.7696,-1.7694,-1.7717,-1.7727,-1.7691,-1.7704,-1.7705,-1.7731,-1.7751,-1.7765,-1.7806,-1.7789,-1.7807,-1.7789,-1.7853,-1.7792,-1.7802,-1.7792,-1.7791,-1.7795,-1.7865,-1.7867,-1.7869,-1.787,0,-1.7808,-1.7794,-1.781,-1.7822,-1.7836,-1.7844,-1.7849,-1.7863,-1.7826,-1.7843,-1.7867,-1.7878,-1.7901,-1.7922,-1.7935,-1.7931,-1.7896,-1.789,-1.7903,-1.7915,-1.7925,-1.7922,-1.7726,-1.7886,-1.7884,-1.7883,-1.7882,-1.7882,-1.7918,-1.7946,-1.7941,-1.7962,-1.7962,-1.7968,-1.7992,-1.7978,-1.7997,-1.8013,-1.7991,-1.8021,-1.802,-1.8034,-1.8035,-1.8059,-1.8032,-1.8051,-1.8056,-1.8062,-1.807,-1.7921,-1.8061,-1.8061,-1.806,-1.806,-1.806,0,-1.8062,-1.8057,-1.8076,-1.8085,-1.8102,-1.8066,-1.8071,-1.8088,-1.8115,-1.8117,-1.8132,-1.8161,-1.8183,-1.8168,-1.8187,-1.821,-1.8194,-1.8216,-1.8214,-1.8214,-1.8093,-1.808,-1.8228,-1.8228,-1.8228,-1.8228,-1.8228,-1.8228,-1.8138,-1.8184,-1.8169,-1.8215,-1.821,-1.8239,-1.8245,-1.8252,-1.8253,-1.8288,-1.8305,-1.8296,-1.8292,-1.831,-1.8329,-1.8325,-1.8334,-1.8362,-1.8352,-1.8239,-1.8222,-1.8207,-1.8194,-1.8364,-1.8365,-1.8472,-1.8473,-1.8473]},{"header":{"parameterUnit":"m.s-1","parameterCategory":1,"la1":30.2991,"la2":30.254,"lo1":-89.0895,"lo2":-89.0444,"dy":0.0017,"dx":0.0017,"nx":28,"ny":28,"refTime":"2024-12-16T09:00:00:Z","depth":0,"parameterNumber":3,"parameterNumberName":"V-component_of_WINDS"},"data":[0,0,0,0,0,0,0,0,0,0,0,0,0,0,0,0,0,0,0,0,0,0,0,0,0,0,0,0,0,0,0,0,0,0,0,0,0,0,0,0,0,0,0,0,0,0,0,0,0,0,0,0,0,0,0,0,0,0,0.1531,0.153,0,0.1436,0.1435,0.1434,0.1414,0.1414,0.1415,0.1416,0.131,0.1307,0.1303,0,0,0,0,0,0,0,0,0,0,0,0,0,0.1691,0.1688,0.1532,0.153,0.1529,0.1436,0.1435,0.1433,0.1414,0.1414,0.1415,0.1416,0.1311,0.1307,0.1303,0,0,0,0,0,0,0,0,0,0,0,0,0,0.1611,0.1687,0.1532,0.1508,0.1505,0.1436,0.1435,0.1433,0.1413,0.1414,0.1416,0.1417,0.1313,0.1308,0.1302,0.1248,0,0,0.1286,0.1284,0,0,0,0,0,0,0,0,0.1615,0.1605,0.1513,0.151,0.1506,0.1438,0.1452,0.1371,0.1413,0.1448,0.1416,0.1417,0.1351,0.1343,0.1322,0.1243,0.1238,0.1286,0.1283,0.128,0.1279,0,0,0,0,0,0,0,0.1621,0.1609,0.1493,0.1511,0.1507,0.15,0.149,0.1437,0.1394,0.1445,0.1443,0.1433,0.135,0.1327,0.132,0.1237,0.1286,0.1281,0.1278,0.1276,0.1109,0.1107,0,0,0,0,0,0,0.1632,0.1614,0.1496,0.1491,0.1565,0.1497,0.1485,0.1459,0.1395,0.1386,0.1432,0.1432,0.1336,0.1326,0.1316,0.1249,0.128,0.1276,0.1273,0.111,0.1108,0.1107,0,0,0,0,0,0,0.1635,0.1621,0.15,0.1552,0.1536,0.1493,0.1463,0.1456,0.1434,0.1385,0.1377,0.1417,0.1336,0.1323,0.1266,0.1245,0.1273,0.1268,0.1111,0.1109,0.1108,0.1113,0,0,0,0,0,0,0.164,0.1623,0.1603,0.1552,0.1533,0.1454,0.1462,0.1453,0.1426,0.1425,0.1369,0.1361,0.1336,0.1274,0.1261,0.1238,0.1264,0.1113,0.1111,0.1108,0.1115,0.1112,0.1109,0,0,0,0,0,0.1645,0.1606,0.1602,0.1588,0.1508,0.1453,0.1442,0.1416,0.1424,0.1403,0.1372,0.1363,0.1249,0.1268,0.1253,0.1228,0.1114,0.1111,0.1108,0.1116,0.1112,0.1109,0,0,0,0,0,0,0.1653,0.1599,0.1594,0.1537,0.15,0.1449,0.1422,0.1413,0.1371,0.1372,0.1339,0.1327,0.1271,0.1244,0.1266,0.1173,0.1182,0.1176,0.1193,0.1189,0.1186,0.1193,0.126,0,0,0,0,0,0.1649,0.1611,0.1564,0.1519,0.1501,0.1465,0.144,0.1424,0.1383,0.1366,0.133,0.1289,0.1244,0.1215,0.1171,0.1111,0.1098,0.1087,0.1084,0.1082,0.1077,0.1043,0.1038,0.1097,0.1097,0.1097,0,0,0.1638,0.1604,0.1581,0.152,0.1489,0.1448,0.1451,0.1408,0.1377,0.1358,0.1303,0.1276,0.1227,0.1169,0.1141,0.1144,0.1058,0.1078,0.1077,0.1073,0.104,0.1034,0.1029,0.1095,0.1096,0.1096,0,0,0.1598,0.1569,0.1529,0.1499,0.1453,0.143,0.142,0.1371,0.1354,0.1298,0.1284,0.1245,0.1168,0.1135,0.1108,0.1058,0.1048,0.1044,0.1029,0.0997,0.0992,0.0988,0.097,0.0964,0.1039,0.1039,0.1039,0,0.159,0.1531,0.1508,0.1466,0.1439,0.1424,0.1382,0.1353,0.1294,0.1275,0.1281,0.1185,0.1151,0.1085,0.1074,0.1052,0.1039,0.105,0.0995,0.0991,0.0986,0.0969,0.0962,0.1039,0.1039,0.1039,0.1039,0,0.1523,0.1482,0.1455,0.1402,0.1372,0.133,0.1299,0.1271,0.1258,0.1234,0.1177,0.1137,0.1085,0.1068,0.1053,0.1,0.1003,0.1002,0.1011,0.0981,0.0964,0.0957,0.1039,0.1039,0.1039,0.1039,0,0,0.1484,0.1422,0.1412,0.1388,0.1338,0.1305,0.1262,0.1214,0.1191,0.1151,0.1114,0.105,0.105,0.1019,0.1001,0.0973,0.0936,0.0975,0.0973,0.0969,0.0874,0.0875,0.0868,0.093,0.0928,0.0927,0.0878,0,0.1438,0.1364,0.1343,0.128,0.1242,0.1227,0.119,0.1154,0.1131,0.1093,0.1066,0.1022,0.1024,0.1006,0.0978,0.0947,0.0917,0.095,0.0893,0.0891,0.0905,0.0859,0.0859,0.0815,0.0872,0.087,0.087,0,0.1374,0.1337,0.1271,0.1228,0.1211,0.1178,0.1133,0.1098,0.1057,0.1041,0.1009,0.0993,0.0947,0.0959,0.0893,0.0917,0.0892,0.0873,0.0871,0.0864,0.0878,0.085,0.0801,0.0794,0.0859,0.086,0.0861,0,0.1352,0.1286,0.1238,0.1218,0.1166,0.1143,0.112,0.1081,0.1054,0.1013,0.0995,0.0949,0.0924,0.0888,0.086,0.0871,0.0796,0.0806,0.0781,0.0782,0.0765,0.0766,0.071,0.075,0.075,0.075,0.0751,0,0.1303,0.1263,0.1228,0.1198,0.1153,0.1129,0.1084,0.1059,0.1025,0.0989,0.0973,0.0939,0.0905,0.0866,0.0843,0.0792,0.0781,0.0766,0.076,0.0767,0.0769,0.075,0.0752,0.0749,0.0749,0.0749,0.075,0,0.1271,0.1245,0.1193,0.1149,0.1137,0.1105,0.1067,0.1037,0.1014,0.0969,0.0956,0.0919,0.0873,0.0842,0.0781,0.0766,0.0711,0.0706,0.0726,0.0723,0.07,0.0702,0.0629,0.0618,0.0666,0.0665,0.0665,0,0.1241,0.121,0.1164,0.1141,0.1119,0.108,0.1054,0.1029,0.1001,0.0953,0.0929,0.0882,0.0844,0.077,0.0736,0.069,0.0683,0.0661,0.0676,0.0684,0.0682,0.0685,0.0681,0.0658,0.0658,0.0657,0.0657,0,0.119,0.118,0.1144,0.1104,0.1073,0.1039,0.1005,0.0986,0.0955,0.0925,0.0879,0.0849,0.079,0.0743,0.0695,0.0668,0.0656,0.0653,0.0645,0.0651,0.0664,0.0656,0.0719,0.0654,0.0655,0.0655,0.0655,0.0655,0.1158,0.113,0.1095,0.1055,0.1028,0.0997,0.0967,0.0942,0.0904,0.0856,0.0843,0.0795,0.0755,0.0689,0.0662,0.0622,0.0624,0.0612,0.0609,0.0606,0.0607,0.0671,0.0613,0.0613,0.0613,0.0613,0.0613,0,0.1106,0.1084,0.1048,0.1002,0.0971,0.0967,0.0929,0.0903,0.0862,0.0827,0.0791,0.0738,0.0693,0.0657,0.061,0.0586,0.058,0.0574,0.0575,0.0569,0.0607,0.0619,0.058,0.058,0.058,0.058,0.058,0.058,0.1076,0.103,0.1016,0.0956,0.0932,0.0888,0.0867,0.0838,0.081,0.0754,0.0718,0.0696,0.0659,0.0611,0.0569,0.0559,0.0542,0.0538,0.0527,0.0563,0.0567,0.057,0.0581,0.0535,0.0535,0.0493,0.0492,0.0492]}]]